HELIOS 2A

Satellite information

Favourite Embed

Satellite Type and Status

PAYLOADIN ORBIT

Key statistics

Satellite HELIOS 2A at a glance.

Uptime

7445

Days in orbit

Revolutions

≈ 15.0

Per day

Orbit

SSO

Sun Synchronous Orbit

Inclination

98.3

Latest

Satellite identification and parameters

Extended collection of information and parameters for HELIOS 2A.

Object identification

Identified? True

Debris? False

Object name: HELIOS 2A

International designator: 2004-049A

Object number (NORAD): 28492

Object ID (CCSDS): 28492

Country: FRANCE (FR)

Current information (Y/N): Y

RCS size: LARGE

Orbital parameters

Period: 95.945 minutes

Inclination: 98.2988 deg

SMA: 6942.399 km

Apoapsis: 569.718 km

Periapsis: 558.81 km

RAAN: 148.4333 deg

Eccentricy: 0.0007856

Argument of periapsis: 209.0759 deg

Mean anomaly: 151.0027 deg

Mean motion: 15.00853996 rev/day

Mean motion (dot): 0.00001968 rev/day2

B* drag term: 0.00016006 1/REarth

Two-line elements (TLE)

Creation date: May 7, 2025, 3:14 a.m.

Reference frame: TEME

Reference center: EARTH

Epoch: May 6, 2025, 11:03 p.m. UTC

TLE line 0: 0 HELIOS 2A

TLE line 1: 1 28492U 04049A 25126.96089602 .00001968 00000-0 16006-3 0 9998

TLE line 2: 2 28492 98.2988 148.4333 0007856 209.0759 151.0027 15.00853996 92794

Live tracking on map

Real-time ground track for satellite HELIOS 2A.

In-orbit conjunctions

There are no conjunctions computed for HELIOS 2A, at the moment. Check back to stay up to date, as we update our databases every day.

Go to all conjunctions

Associated space launch

Helios and Essaim are French miltary satellites for observation of Earth. Parasol is an Earth Observation research satellite.Nanosat 01 is a small technologu demonstator for the spanish space agency INTA.

HELIOS 2A was lifted into orbit during the mission ‘Ariane 5 G+ | Helios 2A, Essaim 1, 2, 3, 4, PARASOL, Nanosat 01’, on board a Ariane 5 G+ space rocket.

The launch took place on Dec. 18, 2004, 4:26 p.m. from Ariane Launch Area 3.

For more information about the launch, click the button.

Launch to space Ariane 5 G+ | Helios 2A, Essaim 1, 2, 3, 4, PARASOL, Nanosat 01
Ariane 5 G+ | Helios 2A, Essaim 1, 2, 3, 4, PARASOL, Nanosat 01

Agency: N/A

Status: Launch Successful

Launch date: Dec. 18, 2004, 4:26 p.m. UTC

Rocket: Ariane 5 G+

Launch pad: Ariane Launch Area 3

Location: Guiana Space Centre, French Guiana

...

Latest news about this satellite

There are no fresh news available about this satellite. Check back as we update our databases every day.


Newsletter sign-up

Weekly statistics, charts and insights to help you stay on top of the space industry.